Regional Weather Roundup
Issued by NWS

Home | Current Version | Previous Version | Graphics & Text | Print | Product List | Glossary Off
Versions: 1 2 3 4 5 6 7 8 9 10 11 12 13 14 15 16 17 18 19 20 21 22 23 24 25 26 27 28 29 30 31 32 33 34 35 36 37 38 39 40 41 42 43 44 45 46 47 48 49 50

000
ASUS43 KMPX 180410
RWRMN
WEATHER ROUNDUP FOR MINNESOTA
NATIONAL WEATHER SERVICE TWIN CITIES/CHANHASSEN MN
1100 PM CDT THU APR 17 2014


NOTE: "FAIR" INDICATES FEW OR NO CLOUDS BELOW 12,000 FEET WITH NO
SIGNIFICANT WEATHER AND/OR OBSTRUCTIONS TO VISIBILITY. N/A MEANS
CURRENT SKY AND/OR WEATHER CONDITIONS ARE NOT AVAILABLE.

MNZ060>063-068>070-180500-
   Twin Cities Metro

CITY           SKY/WX    TMP DP  RH WIND       PRES   REMARKS
TWIN CITIES    CLEAR     34  25  69 CALM      30.31S
ST PAUL        CLEAR     32  27  81 CALM      30.32F
CRYSTAL        CLEAR     30  23  75 CALM      30.30S
BLAINE         CLEAR     30  27  86 CALM      30.31S
EDEN PRAIRIE   CLEAR     32  25  75 NW3       30.30S
LAKEVILLE      CLEAR     28  27  93 CALM      30.31S
SOUTH ST PAUL  CLEAR     34  28  79 CALM      30.31S
LAKE ELMO      FAIR      30  28  93 CALM      30.32S
$$
MNZ001>005-007-008-013>017-022>024-027-028-180500-
   Northwest Minnesota

CITY           SKY/WX    TMP DP  RH WIND       PRES   REMARKS
BEMIDJI        MOCLDY    29   9  43 CALM      30.27S
HALLOCK        CLOUDY    30  18  59 NE6       30.31F WCI  24
ROSEAU         CLEAR     28  14  54 W3        30.30F
WARROAD        CLEAR     27  18  69 CALM      30.31S
THIEF RVR FALL PTCLDY    30  18  59 NW6       30.30S WCI  24
CROOKSTON      PTCLDY    30  25  80 NE7       30.31F WCI  23
FOSSTON        MOCLDY    28  18  64 CALM      30.29R
DETROIT LAKES  PTCLDY    32  23  69 N3        30.29R
MOORHEAD       CLOUDY    36  21  55 E3        30.30S
PARK RAPIDS    PTCLDY    32  11  41 N5        30.26S WCI  27
$$
MNZ006-009>011-018-025>026-180500-
   North Central Minnesota

CITY           SKY/WX    TMP DP  RH WIND       PRES   REMARKS
BAUDETTE       CLEAR     25  17  72 CALM      30.30S
FLAG ISLAND    CLEAR     27  10  50 CALM      30.30S
INTL FALLS     CLEAR     26  20  77 CALM      30.30R
WASKISH        CLEAR     27  18  69 CALM      30.30S
BIG FORK       CLEAR     27  19  74 CALM      30.30R
LONGVILLE      PTCLDY    27  21  80 CALM      30.28S
GRAND RAPIDS   PTCLDY    28  18  64 SE3       30.28S
CRANE LAKE     CLEAR     18  12  79 CALM      30.32S
ORR            CLEAR     23  19  86 CALM      30.27S
COOK           CLEAR     21  19  93 CALM      30.30R
$$
MNZ012-019>021-037-180500-
   Northeast Minnesota

CITY           SKY/WX    TMP DP  RH WIND       PRES   REMARKS
DULUTH         CLEAR     26  19  74 CALM      30.28F
ELY            MOCLDY    28  21  74 CALM      30.28S
HIBBING        CLEAR     24  20  84 CALM      30.29R
EVELETH        CLEAR     27  21  80 CALM      30.30S
DULUTH HARBOR  CLEAR     32  23  69 CALM      30.33S
TWO HARBORS    CLOUDY    30  19  64 CALM      30.28S
SILVER BAY     CLEAR     30  25  80 CALM      30.28S
GRAND MARAIS     N/A     32  30  92 CALM      30.29R
G MARAIS ARPRT CLOUDY    27  21  80 NW3       30.24S
$$
MNZ029>031-032-039>041-046>048-054>057-064-180500-
   West Central Minnesota

CITY           SKY/WX    TMP DP  RH WIND       PRES   REMARKS
FERGUS FALLS   CLEAR     34  18  51 NE3       30.27S
WHEATON        PTCLDY    34  25  69 S6        30.30F WCI  29
MORRIS         CLEAR     30  23  74 SW5       30.28S WCI  25
ALEXANDRIA     CLEAR     31  22  69 SW7       30.28F WCI  24
ELBOW LAKE     FAIR      31  22  71 SW5       30.29R WCI  26
WADENA         PTCLDY    28  18  64 CALM        N/A
GLENWOOD       CLEAR     28  19  69 SW5       30.29S WCI  23
APPLETON       CLEAR     30  21  69 CALM      30.30S
BENSON         CLEAR     28  19  69 CALM      30.30S
ORTONVILLE     PTCLDY    30  19  64 CALM      30.29S
MADISON        PTCLDY    32  27  80 S5        30.30R WCI  27
WILLMAR        FAIR      28  23  80 CALM      30.31S
$$
MNZ033>034-036-042>043-049>051-058-059-180500-
   Central Minnesota

CITY           SKY/WX    TMP DP  RH WIND       PRES   REMARKS
ST CLOUD       CLEAR     29  22  75 CALM      30.29S
SAUK CENTRE    FAIR      28  20  70 CALM      30.29S
PAYNESVILLE    CLEAR     29  21  74 CALM      30.30S
AITKIN         CLEAR     34  23  64 E3        30.28S
PINE RIVER     CLEAR     30  21  69 E6        30.30R WCI  24
BRAINERD       CLEAR     31  20  63 CALM      30.27F
STAPLES        CLEAR     30  16  55 CALM      30.27S
LONG PRAIRIE   FAIR      28  23  80 CALM      30.28F
LITTLE FALLS   CLEAR     28  21  74 CALM      30.29S
LITCHFIELD     CLEAR     28  27  93 SW3       30.31S
BUFFALO        CLEAR     28  24  82 CALM      30.31S
MAPLE LAKE     CLEAR     28  26  93 CALM      30.31S
$$
MNZ037-044-045-052-053-180500-
   East Central Minnesota

CITY           SKY/WX    TMP DP  RH WIND       PRES   REMARKS
PRINCETON      CLEAR     28  21  74 CALM      30.30S
MORA           CLEAR     27  21  80 CALM      30.31S
CAMBRIDGE      CLEAR     30  21  69 CALM      30.29S
RUSH CITY      CLEAR     29  24  80 CALM      30.31S
MOOSE LAKE     CLEAR     28  23  80 CALM      30.29S
HINCKLEY       FAIR      28  25  86 CALM      30.30S
CLOQUET        CLEAR     25  23  93 CALM      30.29S
MCGREGOR       CLEAR     30  23  74 E3        30.30S
$$
MNZ071>073-080-081-089-090-097-098-180500-
   Southwest Minnesota

CITY           SKY/WX    TMP DP  RH WIND       PRES   REMARKS
MONTEVIDEO     CLEAR     28  21  74 W3        30.31S
GRANITE FALLS  CLEAR     25  21  83 S5        30.33R WCI  20
CANBY          PTCLDY    31  20  63 S5        30.31S WCI  26
MARSHALL       CLOUDY    30  21  69 S6        30.30S WCI  24
REDWOOD FALLS  CLEAR     31  25  78 SW3       30.31S
OLIVIA         CLEAR     28  23  80 CALM      30.30F
PIPESTONE      MOCLDY    32  25  74 E7        30.27S WCI  26
WINDOM         CLEAR     28  27  93 CALM      30.30S
WORTHINGTON    PTCLDY    32  23  69 NE6       30.30S WCI  26
JACKSON        PTCLDY    32  27  80 NE6       30.30S WCI  26
TRACY          PTCLDY    31  26  81 CALM      30.30F
SLAYTON        MOCLDY    31  27  85 NE3       30.30S
$$
MNZ065>067-074>077-082>085-091>093-180500-
   South Central Minnesota

CITY           SKY/WX    TMP DP  RH WIND       PRES   REMARKS
MANKATO        CLEAR     32  27  80 CALM      30.32S
NEW ULM        CLEAR     30  28  93 CALM      30.31S
ST JAMES       CLEAR     34  28  80 CALM      30.32S
FAIRMONT       CLEAR     32  28  86 CALM      30.32S
GLENCOE        CLEAR     32  27  82 W3        30.30F
FARIBAULT      CLEAR     34  27  75 CALM      30.31S
OWATONNA       CLEAR     30  28  93 CALM      30.31S FOG
WASECA         CLEAR     34  32  93 CALM      30.32S
ALBERT LEA     CLEAR     30  28  93 CALM      30.31S FOG
$$
MNZ078>079-086>088-094>096-180500-
   Southeast Minnesota

CITY           SKY/WX    TMP DP  RH WIND       PRES   REMARKS
ROCHESTER      CLEAR     32  26  78 CALM      30.30S
RED WING       CLEAR     28  27  93 CALM      30.31S
STANTON        CLEAR     31  28  88 CALM      30.30S FOG
DODGE CENTER   PTCLDY    34  32  93 CALM      30.30S
WINONA         CLEAR     36  30  80 CALM      30.33R
AUSTIN         CLEAR     30  28  93 CALM      30.31R
PRESTON        PTCLDY    32  28  83 CALM      30.31S
$$
ABBREVIATIONS USED IN REMARKS
   TC - TEMPERATURES IN CELSIUS
  WCI - WIND CHILL INDEX
   HX - HEAT INDEX
  VSB - VISIBILITY
$$


USA.gov is the U.S. government's official web portal to all federal, state and local government web resources and services.